Harlan, KY

1:29 AM EST on November 20, 2019 (GMT -0500)
Harlan

Weather History for KI35 - September, 2019

Change the Weather History Date:

Monday, September 9, 2019

  Actual Average (WUND) Record (WUND)
Temperature  
Mean Temperature 74 °F -  
Max Temperature 89 °F - - (-1)
Min Temperature 58 °F - - (-1)
Cooling Degree Days 8    
Growing Degree Days 24 (Base 50)    
Moisture  
Dew Point 60 °F    
Average Humidity 75    
Maximum Humidity 99    
Minimum Humidity 35    
Precipitation  
Precipitation 0.00 in - - ()
Sea Level Pressure  
Sea Level Pressure 30.20 in    
Wind  
Wind Speed 0 mph ()    
Max Wind Speed 6 mph    
Max Gust Speed -    
Visibility 8.2 miles    
Events      
Averages and records for this station are not official NWS values.
T = Trace of Precipitation, MM = Missing Value Source: Averaged Metar Reports

Daily Weather History Graph

Daily Weather History Graph

Search for Another Location

Airport or City:

Astronomy

Sep. 09, 2019 Rise Set
Actual Time 7:10 AM EDT 7:50 PM EDT
Civil Twilight 6:44 AM EDT 8:16 PM EDT
Nautical Twilight 6:13 AM EDT 8:47 PM EDT
Astronomical Twilight 5:41 AM EDT 9:18 PM EDT
Moon 5:38 PM EDT (9/9) 2:48 AM EDT (9/9)
Length of Visible Light 13h 32m
Length of Day
12h 39m
Waxing Gibbous, 83% of the Moon is Illuminated
Sep 9
Waxing Gibbous
Sep 14
Full
Sep 21
Last Quarter
Sep 28
New
Oct 5
First Quarter

Hourly Weather History & Observations

Time (EDT) Temp. Heat Index Dew Point Humidity Pressure Visibility Wind Dir Wind Speed Gust Speed Precip Events Conditions
12:15 AM 62.1 °F - 60.8 °F 96% 30.15 in 10.0 mi Calm Calm - N/A   Clear
12:35 AM 61.5 °F - 60.6 °F 97% 30.16 in 10.0 mi Calm Calm - N/A   Clear
12:55 AM 61.0 °F - 60.3 °F 97% 30.15 in 10.0 mi Calm Calm - N/A   Clear
1:15 AM 61.2 °F - 60.4 °F 97% 30.15 in 10.0 mi Calm Calm - N/A   Clear
1:35 AM 60.8 °F - 60.1 °F 97% 30.16 in 10.0 mi Calm Calm - N/A   Clear
1:55 AM 60.3 °F - 59.7 °F 98% 30.16 in 7.0 mi Calm Calm - N/A   Clear
2:15 AM 60.3 °F - 59.7 °F 98% 30.16 in 7.0 mi Calm Calm - N/A   Clear
2:35 AM 59.9 °F - 59.2 °F 97% 30.16 in 7.0 mi Calm Calm - N/A   Clear
2:55 AM 59.9 °F - 59.2 °F 97% 30.16 in 7.0 mi Calm Calm - N/A   Clear
3:15 AM 59.4 °F - 59.0 °F 99% 30.16 in 7.0 mi Calm Calm - N/A   Mostly Cloudy
3:35 AM 59.2 °F - 58.8 °F 99% 30.16 in 7.0 mi Calm Calm - N/A   Scattered Clouds
3:55 AM 58.8 °F - 58.5 °F 99% 30.15 in 5.0 mi Calm Calm - N/A   Mostly Cloudy
4:15 AM 58.6 °F - 58.3 °F 99% 30.16 in 7.0 mi Calm Calm - N/A   Scattered Clouds
4:35 AM 58.6 °F - 58.3 °F 99% 30.16 in 7.0 mi Calm Calm - N/A   Clear
4:55 AM 58.5 °F - 58.1 °F 99% 30.16 in 7.0 mi Calm Calm - N/A   Scattered Clouds
5:15 AM 58.5 °F - 58.1 °F 99% 30.17 in 5.0 mi Calm Calm - N/A   Mostly Cloudy
5:35 AM 58.5 °F - 58.3 °F 99% 30.18 in 5.0 mi Calm Calm - N/A   Mostly Cloudy
5:55 AM 58.3 °F - 58.1 °F 99% 30.18 in 5.0 mi Calm Calm - N/A   Mostly Cloudy
6:15 AM 58.3 °F - 58.1 °F 99% 30.19 in 2.5 mi Calm Calm - N/A   Overcast
6:35 AM 58.5 °F - 58.1 °F 99% 30.20 in 3.0 mi Calm Calm - N/A   Overcast
6:55 AM 58.5 °F - 58.3 °F 99% 30.20 in 1.8 mi Calm Calm - N/A   Overcast
7:15 AM 58.6 °F - 58.5 °F 99% 30.21 in 1.0 mi Calm Calm - N/A   Overcast
7:35 AM 58.6 °F - 58.5 °F 99% 30.22 in 1.0 mi Calm Calm - N/A   Overcast
7:55 AM 58.5 °F - 58.3 °F 99% 30.22 in 0.5 mi Calm Calm - N/A   Overcast
8:15 AM 59.2 °F - 59.0 °F 99% 30.23 in 1.8 mi Calm Calm - N/A   Overcast
8:35 AM 59.4 °F - 59.2 °F 99% 30.23 in 0.5 mi Calm Calm - N/A   Overcast
8:55 AM 60.4 °F - 59.7 °F 97% 30.24 in 2.0 mi Calm Calm - N/A   Overcast
9:15 AM 61.9 °F - 60.1 °F 94% 30.24 in 7.0 mi Calm Calm - N/A   Overcast
9:35 AM 63.7 °F - 60.6 °F 90% 30.25 in 10.0 mi Calm Calm - N/A   Scattered Clouds
9:55 AM 66.2 °F - 60.8 °F 83% 30.25 in 10.0 mi Calm Calm - N/A   Clear
10:15 AM 67.6 °F - 61.7 °F 81% 30.25 in 10.0 mi Calm Calm - N/A   Clear
10:35 AM 69.6 °F - 61.9 °F 76% 30.24 in 10.0 mi Calm Calm - N/A   Clear
10:55 AM 71.6 °F - 61.3 °F 70% 30.24 in 10.0 mi Calm Calm - N/A   Clear
11:15 AM 73.6 °F - 63.0 °F 69% 30.24 in 10.0 mi Calm Calm - N/A   Clear
11:35 AM 76.6 °F - 62.6 °F 62% 30.24 in 10.0 mi Calm Calm - N/A   Clear
11:55 AM 77.5 °F - 62.2 °F 59% 30.24 in 10.0 mi Calm Calm - N/A   Clear
12:15 PM 80.4 °F 81.8 °F 63.3 °F 56% 30.23 in 10.0 mi Calm Calm - N/A   Clear
12:35 PM 81.1 °F 82.4 °F 63.0 °F 54% 30.23 in 10.0 mi Calm Calm - N/A   Clear
12:55 PM 81.1 °F 81.4 °F 58.3 °F 46% 30.23 in 10.0 mi Calm Calm - N/A   Clear
1:15 PM 83.1 °F 83.0 °F 59.2 °F 44% 30.22 in 10.0 mi Calm Calm - N/A   Clear
1:35 PM 82.9 °F 82.7 °F 58.5 °F 43% 30.22 in 10.0 mi Calm Calm - N/A   Clear
1:55 PM 84.2 °F 83.7 °F 58.5 °F 41% 30.22 in 10.0 mi South 5.8 mph - N/A   Clear
2:15 PM 85.5 °F 84.8 °F 58.3 °F 40% 30.21 in 10.0 mi Calm Calm - N/A   Clear
2:35 PM 86.4 °F 85.9 °F 59.5 °F 40% 30.20 in 10.0 mi Calm Calm - N/A   Clear
2:55 PM 87.3 °F 87.0 °F 59.9 °F 40% 30.20 in 10.0 mi SSW 3.5 mph - N/A   Clear
3:15 PM 86.9 °F 86.1 °F 58.3 °F 38% 30.20 in 10.0 mi South 3.5 mph - N/A   Clear
3:35 PM 87.6 °F 86.7 °F 58.1 °F 37% 30.20 in 10.0 mi Calm Calm - N/A   Clear
3:55 PM 88.0 °F 87.1 °F 58.6 °F 37% 30.19 in 10.0 mi Calm Calm - N/A   Clear
4:15 PM 87.8 °F 86.9 °F 58.5 °F 37% 30.19 in 10.0 mi Calm Calm - N/A   Clear
4:35 PM 88.9 °F 87.7 °F 57.9 °F 35% 30.19 in 10.0 mi East 3.5 mph - N/A   Clear
4:55 PM 89.1 °F 88.0 °F 58.1 °F 35% 30.18 in 10.0 mi NNE 5.8 mph - N/A   Clear
5:15 PM 88.3 °F 87.3 °F 57.9 °F 36% 30.18 in 10.0 mi NE 3.5 mph - N/A   Clear
5:35 PM 88.0 °F 86.9 °F 58.1 °F 36% 30.17 in 10.0 mi NNW 3.5 mph - N/A   Clear
5:55 PM 87.3 °F 86.5 °F 58.6 °F 38% 30.18 in 10.0 mi North 3.5 mph - N/A   Clear
6:15 PM 87.1 °F 86.5 °F 59.0 °F 39% 30.18 in 10.0 mi Calm Calm - N/A   Clear
6:35 PM 86.0 °F 85.4 °F 59.4 °F 40% 30.18 in 10.0 mi NNE 4.6 mph - N/A   Clear
6:55 PM 85.3 °F 85.0 °F 59.9 °F 42% 30.18 in 10.0 mi North 3.5 mph - N/A   Clear
7:15 PM 81.9 °F 82.8 °F 61.9 °F 51% 30.18 in 10.0 mi Calm Calm - N/A   Clear
7:35 PM 79.2 °F - 62.1 °F 56% 30.20 in 10.0 mi Calm Calm - N/A   Clear
7:55 PM 77.2 °F - 62.2 °F 60% 30.21 in 3.0 mi Calm Calm - N/A   Clear
8:15 PM 75.2 °F - 62.4 °F 64% 30.22 in 10.0 mi Calm Calm - N/A   Clear
8:35 PM 73.2 °F - 63.5 °F 71% 30.22 in 10.0 mi Calm Calm - N/A   Clear
8:55 PM 71.2 °F - 63.7 °F 77% 30.22 in 10.0 mi Calm Calm - N/A   Clear
9:15 PM 70.2 °F - 64.4 °F 82% 30.23 in 10.0 mi Calm Calm - N/A   Clear
9:35 PM 69.6 °F - 64.0 °F 82% 30.23 in 10.0 mi Calm Calm - N/A   Clear
9:55 PM 68.9 °F - 64.2 °F 85% 30.23 in 10.0 mi Calm Calm - N/A   Clear
10:15 PM 68.0 °F - 64.4 °F 88% 30.23 in 10.0 mi Calm Calm - N/A   Clear
10:35 PM 67.1 °F - 64.4 °F 91% 30.24 in 10.0 mi Calm Calm - N/A   Clear
10:55 PM 66.2 °F - 64.0 °F 93% 30.24 in 10.0 mi Calm Calm - N/A   Clear
11:15 PM 66.6 °F - 64.0 °F 92% 30.25 in 10.0 mi East 3.5 mph - N/A   Clear
11:35 PM 66.2 °F - 63.7 °F 92% 30.25 in 10.0 mi Calm Calm - N/A   Clear
11:55 PM 65.7 °F - 63.5 °F 93% 30.25 in 10.0 mi Calm Calm - N/A   Clear